Find Starlink 36427

NORAD ID: 67333 Int'l Des: 2026-002 Owner: SPXS Country: US Constellation: starlink operational
LEOCIRCULAR

实时位置

正在加载3D地球...

关于 Starlink 36427

正在加载描述...

即将过境

Passes for default location (London). Set your location on the main map for personalized predictions.

高度历史

Loading altitude history...

两行轨道根数

1 67333U 26002AE 26107.04192526 .00008284 00000-0 31018-3 0 9995
2 67333 43.0002 108.7197 0001103 274.6292 85.4434 15.27583725 17004
Epoch: Apr 17, 2026 • Age: 15 hours

当前状态

高度 482.7 km
速度 7.63 km/s
星下点 18.82°N, 178.74°W
发射日期 Jan 4, 2026
运行时间 0.2 years
类型 internet

技术详情

分类 Payload
质量 575.00 kg
干质量 530.00 kg
总质量 575.00 kg
长度 0.30 m
直径 4.10 m
跨度 29.00 m
形状 Box + pan
制造商 SPXS
平台类型 Starlink V2MO
阶段状态 In Orbit
所有者/国家 SPXS/US

Most Searched